User: anonymous   Login
Location: Étavigny
(49.1201°N, 2.9800°E)
Time: 23:53:58
(UTC+00:00)
Language:

Cosmos 1844 - Orbit

View from above orbital plane
View from above orbital plane
View from above satellite
View from above satellite

Ground track
Ground track

The orbit data is extracted from the following two-line orbital elements,

1 17973U 87041A   23151.78907651  .00000306  00000-0  18504-3 0  9992
2 17973  70.8997  10.0740 0029241 104.1145 256.3229 14.14223744860561
Epoch (UTC): 31 May 2023 18:56:16
Eccentricity: 0.0029241
inclination: 70.8997°
perigee height: 824 km
apogee height: 866 km
right ascension of ascending node: 10.0740°
argument of perigee: 104.1145°
revolutions per day: 14.14223744
mean anomaly at epoch: 256.3229°
orbit number at epoch: 86056

The dashed part of the orbit path shows where the satellite is in the earth's shadow,  

DLR